Regional Weather Roundup
Issued by NWS

Home | Current Version | Previous Version | Graphics & Text | Print | Product List | Glossary Off
Versions: 1 2 3 4 5 6 7 8 9 10 11 12 13 14 15 16 17 18 19 20 21 22 23 24 25 26 27 28 29 30 31 32 33 34 35 36 37 38 39 40 41 42 43 44 45 46 47 48 49 50

000
ASUS43 KMKX 311221
RWRWI

WISCONSIN REGIONAL WEATHER ROUNDUP
NATIONAL WEATHER SERVICE MILWAUKEE/SULLIVAN WI
700 AM CDT FRI JUL 31 2015

NOTE: "FAIR" INDICATES FEW OR NO CLOUDS BELOW 12,000 FEET WITH NO
SIGNIFICANT WEATHER AND/OR OBSTRUCTIONS TO VISIBILITY.

WIZ001-002-006>008-014>016-023>028-311300-
NORTHWEST WISCONSIN

CITY           SKY/WX    TMP DP  RH WIND       PRES   REMARKS
SUPERIOR ARPT  SUNNY     63  54  74 W7        29.96R
6HR MIN TEMP:  61; 6HR MAX TEMP:  66;

ASHLAND        SUNNY     64  55  72 W7        29.93R
6HR MIN TEMP:  57; 6HR MAX TEMP:  64;

HAYWARD        SUNNY     64  53  67 VRB7      29.98R
6HR MIN TEMP:  58; 6HR MAX TEMP:  64;

SIREN          SUNNY     62  53  72 W7        30.01R
6HR MIN TEMP:  61; 6HR MAX TEMP:  66;

CUMBERLAND     SUNNY     61  52  72 W8        30.01R
RICE LAKE      SUNNY     61  55  81 W6        30.02R
6HR MIN TEMP:  59; 6HR MAX TEMP:  64;

CHETEK         SUNNY     64  55  73 W8        30.01R
6HR MIN TEMP:  63; 6HR MAX TEMP:  70;

LADYSMITH      SUNNY     63  56  78 W7        30.00R
6HR MIN TEMP:  63; 6HR MAX TEMP:  66;

EAU CLAIRE     SUNNY     64  56  75 W6        30.00R
6HR MIN TEMP:  61; 6HR MAX TEMP:  64;

MENOMONIE      SUNNY     66  55  67 W10       30.03R
6HR MIN TEMP:  64; 6HR MAX TEMP:  70;

NEW RICHMOND   SUNNY     62  54  74 W7        30.04R
6HR MIN TEMP:  59; 6HR MAX TEMP:  66;

OSCEOLA        CLEAR     64  54  71 W8        30.06R
6HR MIN TEMP:  61; 6HR MAX TEMP:  67;

$$

WIZ003>005-009-010-017-018-311300-
NORTH CENTRAL WISCONSIN

CITY           SKY/WX    TMP DP  RH WIND       PRES   REMARKS
MANITOWISH WTR SUNNY     61  57  87 W8        29.94R
6HR MIN TEMP:  56; 6HR MAX TEMP:  62;

ARBOR VITAE    MOSUNNY   62  56  80 W7        29.93S
6HR MIN TEMP:  62; 6HR MAX TEMP:  64;

WOODRUFF       MOSUNNY   62  56  80 W7        29.93S
6HR MIN TEMP:  62; 6HR MAX TEMP:  64;

RHINELANDER    PTSUNNY   61  55  81 W9        29.95R
6HR MIN TEMP:  58; 6HR MAX TEMP:  62;

EAGLE RIVER    PTSUNNY   61  57  86 W6        29.92S
6HR MIN TEMP:  53; 6HR MAX TEMP:  61;

LAND O LAKES   MOSUNNY   62  56  79 W6        29.93R
6HR MIN TEMP:  56; 6HR MAX TEMP:  62;

PHILLIPS       PTSUNNY   61  56  83 W6        29.96R
6HR MIN TEMP:  59; 6HR MAX TEMP:  63;

TOMAHAWK       MOSUNNY   60  56  85 W7        29.96R
6HR MIN TEMP:  55; 6HR MAX TEMP:  61;

MEDFORD        MOSUNNY   60  56  86 W8        29.99R
6HR MIN TEMP:  58; 6HR MAX TEMP:  65;

MERRILL        NOT AVBL
$$

WIZ029-030-035-036-043>047-311300-
CENTRAL WISCONSIN

CITY           SKY/WX    TMP DP  RH WIND       PRES   REMARKS
WAUSAU         SUNNY     64  56  75 NW15      29.95R
6HR MIN TEMP:  64; 6HR MAX TEMP:  70;

MOSINEE        SUNNY     63  57  82 W10       29.98R
MARSHFIELD     SUNNY     64  56  75 W8        29.99R
6HR MIN TEMP:  61; 6HR MAX TEMP:  66;

STEVENS POINT  SUNNY     64  56  77 W9G17     29.98R
6HR MIN TEMP:  62; 6HR MAX TEMP:  67;

WAUPACA        SUNNY     67  60  76 SW8       29.96S
6HR MIN TEMP:  64; 6HR MAX TEMP:  70;

WAUTOMA        SUNNY     67  60  78 W3        29.99R
6HR MIN TEMP:  58; 6HR MAX TEMP:  68;

WISC RAPIDS    SUNNY     65  57  75 W8        30.00R
6HR MIN TEMP:  62; 6HR MAX TEMP:  67;

CAMP DOUGLAS   SUNNY     64  64 100 W8        30.00R
6HR MIN TEMP:  59; 6HR MAX TEMP:  66;

$$

WIZ011>013-019>022-031-037>040-048>050-311300-
NORTHEAST WISCONSIN

CITY           SKY/WX    TMP DP  RH WIND       PRES   REMARKS
ANTIGO         SUNNY     59  57  91 W7        29.95S
SHAWANO        SUNNY     67  58  74 W7        29.93S
OCONTO         SUNNY     65  59  81 W8        29.90S
6HR MIN TEMP:  62; 6HR MAX TEMP:  65;

STURGEON BAY   SUNNY     68  57  68 W9        29.92S
6HR MIN TEMP:  64; 6HR MAX TEMP:  70;

GREEN BAY      SUNNY     67  59  75 W12       29.93R
6HR MIN TEMP:  64; 6HR MAX TEMP:  68;

MANITOWOC      SUNNY     68  61  78 MISG      29.94R
6HR MIN TEMP:  66; 6HR MAX TEMP:  69;

APPLETON       MOSUNNY   64  57  77 SW8       29.96R
CLINTONVILLE   SUNNY     64  55  72 W7        29.93S
OSHKOSH        SUNNY     68  58  70 W6        29.96R
6HR MIN TEMP:  66; 6HR MAX TEMP:  69;

$$

WIZ032>034-041-042-053>061-311300-
SOUTHWEST WISCONSIN

CITY           SKY/WX    TMP DP  RH WIND       PRES   REMARKS
LA CROSSE      SUNNY     69  60  73 NW9       30.03R
6HR MIN TEMP:  62; 6HR MAX TEMP:  70;

SPARTA         SUNNY     62  59  88 SW3       30.03R
6HR MIN TEMP:  55; 6HR MAX TEMP:  62;

VIROQUA        SUNNY     62  62  97 SW6       30.05R
6HR MIN TEMP:  60; 6HR MAX TEMP:  64;

BOSCOBEL       SUNNY     65  62  90 CALM      30.05R
6HR MIN TEMP:  60; 6HR MAX TEMP:  65;

PRAIRIE DU CHI MOSUNNY   66  62  87 CALM      30.05R
6HR MIN TEMP:  62; 6HR MAX TEMP:  69;

PLATTEVILLE    MOSUNNY   66  65  96 W5        30.06R
6HR MIN TEMP:  63; 6HR MAX TEMP:  66;

$$

WIZ056-057-062-063-064-067-068-311300-
SOUTH CENTRAL WISCONSIN

CITY           SKY/WX    TMP DP  RH WIND       PRES   REMARKS
REEDSBURG      SUNNY     62  59  91 CALM      30.01S
6HR MIN TEMP:  59; 6HR MAX TEMP:  68;

BARABOO/DELLS  SUNNY     65  58  78 SW3       30.02R
6HR MIN TEMP:  60; 6HR MAX TEMP:  67;

LONE ROCK      SUNNY     61  58  90 CALM      30.04R
6HR MIN TEMP:  57; 6HR MAX TEMP:  62;

MINERAL POINT  SUNNY     66  63  88 W5        30.05R
MADISON        MOSUNNY   68  59  73 W6        30.01R
6HR MIN TEMP:  65; 6HR MAX TEMP:  71;

MIDDLETON      MOSUNNY   67  61  79 W9        30.03R
6HR MIN TEMP:  60; 6HR MAX TEMP:  67;

WATERTOWN      SUNNY     65  62  91 W5        30.00R
6HR MIN TEMP:  59; 6HR MAX TEMP:  65;

MONROE         MOSUNNY   66  63  88 W10       30.04R
JANESVILLE     MOSUNNY   66  63  88 W6        30.01S
$$

WIZ051-052-058>065-066-070>072-311300-
SOUTHEAST WISCONSIN

CITY           SKY/WX    TMP DP  RH WIND       PRES   REMARKS
MILWAUKEE      MOSUNNY   70  57  63 W7        29.99R
6HR MIN TEMP:  68; 6HR MAX TEMP:  75;

WAUKESHA       MOSUNNY   66  57  72 W5        30.00S
MILWAUKEE/TIMM SUNNY     68  55  64 W7        30.00R
RACINE         MOSUNNY   69  57  65 W7        30.01R
6HR MIN TEMP:  66; 6HR MAX TEMP:  69;

BURLINGTON     PTSUNNY   67  58  72 W7        30.01R
6HR MIN TEMP:  59; 6HR MAX TEMP:  67;

KENOSHA        PTSUNNY   67  60  78 W6        30.00R
6HR MIN TEMP:  62; 6HR MAX TEMP:  67;

FOND DU LAC    SUNNY     66  58  75 SW8       29.97S
6HR MIN TEMP:  63; 6HR MAX TEMP:  69;

SHEBOYGAN      SUNNY     67  59  75 W8        29.96R
6HR MIN TEMP:  61; 6HR MAX TEMP:  67;

WEST BEND      MOSUNNY   68  55  64 W9        29.99R
JUNEAU         MOSUNNY   62  59  88 SW6       30.01R
6HR MIN TEMP:  58; 6HR MAX TEMP:  68;

$$

LSZ147-162-311300-
LAKE SUPERIOR

STATION/POSITION TIME  TEMP    WIND        PRES    WAVE
                       AIR SEA DIR/SP/G            HT/PER
                 (UTC) (F)     (DEG/KT/KT) (MB)    (FT/S)
W MID LAKE BUOY  1150   57 52  260/ 14/ 16 1011.1R   2/ 4
DEVILS ISLAND    1200   58     280/ 18/ 20 1012.5R
PORT WING        1100   65     250/ 12/ 16 1013.2R
SAXON HARBOR     1100   65                 1012.2
$$

LMZ867-665-643>646-311300-
LAKE MICHIGAN

STATION/POSITION TIME  TEMP    WIND        PRES    WAVE
                       AIR SEA DIR/SP/G            HT/PER
                 (UTC) (F)     (DEG/KT/KT) (MB)    (FT/S)
CHAMBERS ISLAND  1100   65     230/  6/ 10 1011.5S


USA.gov is the U.S. government's official web portal to all federal, state and local government web resources and services.